| time (UTC) | temp F | wind direction | speed MPH | gust MPH | rain 1hr in | rain 24hr in | rain mn in | humidity % | barometer mb |
| 20260509200808 | 87 | 0.0 | 3.0 | 0.00 | 0.03 | 0.03 | 54 | 1010.2 | |
| 20260509200304 | 87 | 0.0 | 1.0 | 0.00 | 0.03 | 0.03 | 59 | 1010.3 | |
| 20260509195803 | 87 | 0.0 | 2.0 | 0.00 | 0.03 | 0.03 | 55 | 1010.3 | |
| 20260509195300 | 86 | 0.0 | 2.0 | 0.00 | 0.03 | 0.03 | 55 | 1010.3 | |
| 20260509194757 | 86 | 0.0 | 6.0 | 0.00 | 0.03 | 0.03 | 54 | 1010.3 | |
| 20260509194254 | 86 | 267 | 2.0 | 6.0 | 0.00 | 0.03 | 0.03 | 57 | 1010.2 |
| 20260509193752 | 86 | 267 | 1.0 | 3.0 | 0.00 | 0.03 | 0.03 | 62 | 1010.2 |
| 20260509193250 | 86 | 0.0 | 6.0 | 0.00 | 0.03 | 0.03 | 63 | 1010.2 | |
| 20260509192747 | 85 | 0.0 | 6.0 | 0.00 | 0.03 | 0.03 | 62 | 1010.3 | |
| 20260509192239 | 86 | 236 | 1.0 | 6.0 | 0.00 | 0.03 | 0.03 | 63 | 1010.4 |
| 20260509191737 | 85 | 0.0 | 4.0 | 0.00 | 0.03 | 0.03 | 67 | 1010.4 | |
| 20260509191235 | 85 | 0.0 | 4.0 | 0.00 | 0.03 | 0.03 | 68 | 1010.5 | |
| 20260509190732 | 85 | 0.0 | 3.0 | 0.00 | 0.03 | 0.03 | 73 | 1010.6 | |
| 20260509190229 | 84 | 0.0 | 3.0 | 0.00 | 0.03 | 0.03 | 72 | 1010.7 | |
| 20260509185727 | 83 | 0.0 | 2.0 | 0.00 | 0.03 | 0.03 | 76 | 1010.9 | |
| 20260509185225 | 83 | 0.0 | 0.0 | 0.00 | 0.03 | 0.03 | 79 | 1010.9 | |
| 20260509184722 | 82 | 0.0 | 0.0 | 0.00 | 0.03 | 0.03 | 77 | 1010.9 | |
| 20260509184219 | 81 | 0.0 | 2.0 | 0.00 | 0.03 | 0.03 | 79 | 1011.0 | |
| 20260509183717 | 81 | 0.0 | 2.0 | 0.00 | 0.03 | 0.03 | 80 | 1011.1 | |
| 20260509183215 | 80 | 0.0 | 0.0 | 0.00 | 0.03 | 0.03 | 82 | 1011.2 | |
| 20260509182712 | 80 | 0.0 | 0.0 | 0.00 | 0.03 | 0.03 | 80 | 1011.3 | |
| 20260509182209 | 79 | 0.0 | 0.0 | 0.00 | 0.03 | 0.03 | 81 | 1011.5 | |
| 20260509181707 | 79 | 0.0 | 0.0 | 0.00 | 0.03 | 0.03 | 83 | 1011.5 | |
| 20260509181203 | 79 | 0.0 | 0.0 | 0.00 | 0.03 | 0.03 | 84 | 1011.4 | |
| 20260509180702 | 79 | 0.0 | 0.0 | 0.00 | 0.03 | 0.03 | 83 | 1011.6 | |
| 20260509180159 | 79 | 0.0 | 0.0 | 0.01 | 0.03 | 0.03 | 82 | 1011.8 | |
| 20260509175657 | 79 | 0.0 | 1.0 | 0.01 | 0.03 | 0.03 | 80 | 1011.7 | |
| 20260509175153 | 79 | 0.0 | 1.0 | 0.02 | 0.03 | 0.03 | 80 | 1011.8 | |
| 20260509174652 | 79 | 0.0 | 0.0 | 0.03 | 0.03 | 0.03 | 80 | 1011.5 | |
| 20260509174149 | 79 | 0.0 | 0.0 | 0.03 | 0.03 | 0.03 | 80 | 1011.6 | |
| 20260509173647 | 79 | 0.0 | 0.0 | 0.03 | 0.03 | 0.03 | 84 | 1011.6 | |
| 20260509173143 | 78 | 0.0 | 0.0 | 0.03 | 0.03 | 0.03 | 85 | 1011.8 | |
| 20260509172642 | 78 | 0.0 | 0.0 | 0.03 | 0.03 | 0.03 | 86 | 1011.6 | |
| 20260509172139 | 77 | 0.0 | 0.0 | 0.03 | 0.03 | 0.03 | 85 | 1011.7 | |
| 20260509171636 | 78 | 0.0 | 0.0 | 0.03 | 0.03 | 0.03 | 86 | 1012.0 | |
| 20260509171133 | 77 | 0.0 | 0.0 | 0.03 | 0.03 | 0.03 | 85 | 1012.1 | |
| 20260509170631 | 78 | 0.0 | 0.0 | 0.03 | 0.03 | 0.03 | 84 | 1012.2 | |
| 20260509170129 | 78 | 0.0 | 0.0 | 0.02 | 0.02 | 0.02 | 82 | 1012.2 | |
| 20260509165626 | 79 | 0.0 | 3.0 | 0.02 | 0.02 | 0.02 | 80 | 1012.2 | |
| 20260509165123 | 79 | 0.0 | 3.0 | 0.00 | 0.00 | 0.00 | 77 | 1012.0 | |
| 20260509164621 | 80 | 0.0 | 7.0 | 0.00 | 0.00 | 0.00 | 77 | 1012.0 | |
| 20260509164119 | 80 | 194 | 2.0 | 7.0 | 0.00 | 0.00 | 0.00 | 76 | 1011.9 |
| 20260509163616 | 81 | 204 | 1.0 | 6.0 | 0.00 | 0.00 | 0.00 | 78 | 1011.7 |
| 20260509163113 | 81 | 206 | 1.0 | 5.0 | 0.00 | 0.00 | 0.00 | 77 | 1011.9 |
| 20260509162611 | 81 | 203 | 1.0 | 5.0 | 0.00 | 0.00 | 0.00 | 77 | 1012.0 |
| 20260509162109 | 81 | 192 | 1.0 | 8.0 | 0.00 | 0.00 | 0.00 | 78 | 1012.0 |
| 20260509161606 | 81 | 192 | 1.0 | 8.0 | 0.00 | 0.00 | 0.00 | 77 | 1012.0 |
| 20260509161103 | 82 | 239 | 1.0 | 4.0 | 0.00 | 0.00 | 0.00 | 72 | 1011.8 |
| 20260509160601 | 83 | 0.0 | 3.0 | 0.00 | 0.00 | 0.00 | 71 | 1011.7 | |
| 20260509160059 | 83 | 242 | 1.0 | 4.0 | 0.00 | 0.00 | 0.00 | 71 | 1011.7 |
| 20260509155556 | 83 | 242 | 1.0 | 4.0 | 0.00 | 0.00 | 0.00 | 71 | 1011.6 |
| 20260509155053 | 82 | 242 | 1.0 | 3.0 | 0.00 | 0.00 | 0.00 | 71 | 1011.6 |
| 20260509154551 | 82 | 0.0 | 3.0 | 0.00 | 0.00 | 0.00 | 72 | 1011.6 | |
| 20260509154047 | 82 | 0.0 | 2.0 | 0.00 | 0.00 | 0.00 | 73 | 1011.5 | |
| 20260509153546 | 82 | 0.0 | 3.0 | 0.00 | 0.00 | 0.00 | 72 | 1011.5 | |
| 20260509153043 | 82 | 242 | 1.0 | 3.0 | 0.00 | 0.00 | 0.00 | 73 | 1011.4 |
| 20260509152541 | 82 | 0.0 | 4.0 | 0.00 | 0.00 | 0.00 | 73 | 1011.3 | |
| 20260509152037 | 81 | 0.0 | 7.0 | 0.00 | 0.00 | 0.00 | 75 | 1011.2 | |
| 20260509151536 | 81 | 0.0 | 7.0 | 0.00 | 0.00 | 0.00 | 75 | 1011.0 | |
| 20260509151033 | 81 | 206 | 2.0 | 6.0 | 0.00 | 0.00 | 0.00 | 76 | 1010.9 |
| 20260509150530 | 81 | 213 | 1.0 | 6.0 | 0.00 | 0.00 | 0.00 | 77 | 1011.0 |
| 20260509150027 | 80 | 0.0 | 5.0 | 0.00 | 0.00 | 0.00 | 79 | 1011.1 | |
| 20260509145525 | 80 | 205 | 1.0 | 5.0 | 0.00 | 0.00 | 0.00 | 79 | 1010.9 |
| 20260509145023 | 79 | 189 | 1.0 | 6.0 | 0.00 | 0.00 | 0.00 | 80 | 1010.8 |
| 20260509144520 | 79 | 188 | 1.0 | 6.0 | 0.00 | 0.00 | 0.00 | 80 | 1010.9 |
| 20260509144017 | 78 | 201 | 1.0 | 6.0 | 0.00 | 0.00 | 0.00 | 81 | 1010.8 |
| 20260509143515 | 78 | 201 | 1.0 | 6.0 | 0.00 | 0.00 | 0.00 | 83 | 1010.7 |
| 20260509143013 | 78 | 201 | 1.0 | 3.0 | 0.00 | 0.00 | 0.00 | 84 | 1010.7 |
| 20260509142510 | 77 | 201 | 1.0 | 4.0 | 0.00 | 0.00 | 0.00 | 84 | 1010.6 |
| 20260509142007 | 77 | 201 | 1.0 | 5.0 | 0.00 | 0.00 | 0.00 | 84 | 1010.5 |
| 20260509141505 | 77 | 0.0 | 4.0 | 0.00 | 0.00 | 0.00 | 85 | 1010.6 | |
| 20260509141003 | 76 | 201 | 1.0 | 4.0 | 0.00 | 0.00 | 0.00 | 85 | 1010.6 |
| 20260509140500 | 76 | 201 | 1.0 | 5.0 | 0.00 | 0.00 | 0.00 | 87 | 1010.5 |
| 20260509135957 | 75 | 155 | 1.0 | 3.0 | 0.00 | 0.00 | 0.00 | 88 | 1010.5 |
| 20260509135455 | 75 | 1.0 | 5.0 | 0.00 | 0.00 | 0.00 | 89 | 1010.6 | |
| 20260509134953 | 74 | 155 | 1.0 | 5.0 | 0.00 | 0.00 | 0.00 | 90 | 1010.7 |
| 20260509134450 | 74 | 1.0 | 7.0 | 0.00 | 0.00 | 0.00 | 91 | 1010.7 | |
| 20260509133947 | 73 | 155 | 1.0 | 7.0 | 0.00 | 0.00 | 0.00 | 91 | 1010.5 |
| 20260509133445 | 73 | 154 | 1.0 | 9.0 | 0.00 | 0.00 | 0.00 | 93 | 1010.5 |
| 20260509132943 | 72 | 154 | 1.0 | 9.0 | 0.00 | 0.00 | 0.00 | 94 | 1010.3 |
| 20260509132440 | 72 | 103 | 1.0 | 6.0 | 0.00 | 0.00 | 0.00 | 94 | 1010.1 |
| 20260509131937 | 72 | 0.0 | 2.0 | 0.00 | 0.00 | 0.00 | 94 | 1010.4 | |
| 20260509131435 | 72 | 0.0 | 0.0 | 0.00 | 0.00 | 0.00 | 95 | 1010.4 | |
| 20260509130933 | 71 | 0.0 | 3.0 | 0.00 | 0.00 | 0.00 | 95 | 1010.4 | |
| 20260509130430 | 71 | 0.0 | 3.0 | 0.00 | 0.00 | 0.00 | 95 | 1010.2 | |
| 20260509125927 | 71 | 0.0 | 3.0 | 0.00 | 0.00 | 0.00 | 95 | 1010.2 | |
| 20260509125424 | 71 | 0.0 | 2.0 | 0.00 | 0.00 | 0.00 | 95 | 1010.2 | |
| 20260509124920 | 71 | 0.0 | 2.0 | 0.00 | 0.00 | 0.00 | 95 | 1010.3 | |
| 20260509124419 | 70 | 0.0 | 2.0 | 0.00 | 0.00 | 0.00 | 94 | 1010.4 | |
| 20260509123916 | 70 | 0.0 | 2.0 | 0.00 | 0.00 | 0.00 | 95 | 1010.7 | |
| 20260509123414 | 70 | 0.0 | 0.0 | 0.00 | 0.00 | 0.00 | 94 | 1010.8 | |
| 20260509122910 | 70 | 0.0 | 0.0 | 0.00 | 0.00 | 0.00 | 94 | 1010.7 | |
| 20260509122409 | 70 | 0.0 | 0.0 | 0.00 | 0.00 | 0.00 | 94 | 1010.8 | |
| 20260509121906 | 70 | 0.0 | 0.0 | 0.00 | 0.00 | 0.00 | 94 | 1010.9 | |
| 20260509121404 | 70 | 0.0 | 0.0 | 0.00 | 0.00 | 0.00 | 94 | 1010.9 | |
| 20260509120900 | 70 | 0.0 | 0.0 | 0.00 | 0.00 | 0.00 | 94 | 1011.0 | |
| 20260509120359 | 70 | 0.0 | 0.0 | 0.00 | 0.00 | 0.00 | 94 | 1011.0 | |
| 20260509115856 | 70 | 0.0 | 0.0 | 0.00 | 0.00 | 0.00 | 94 | 1011.1 | |
| 20260509115356 | 71 | 0.0 | 0.0 | 0.00 | 0.00 | 0.00 | 94 | 1011.0 | |
| 20260509114850 | 71 | 0.0 | 0.0 | 0.00 | 0.00 | 0.00 | 94 | 1011.2 | |
| 20260509114349 | 71 | 0.0 | 0.0 | 0.00 | 0.00 | 0.00 | 94 | 1011.5 | |
| 20260509113846 | 70 | 0.0 | 0.0 | 0.00 | 0.00 | 0.00 | 94 | 1011.7 | |
| 20260509113344 | 71 | 0.0 | 0.0 | 0.00 | 0.00 | 0.00 | 94 | 1011.8 | |
| 20260509112840 | 71 | 0.0 | 0.0 | 0.00 | 0.00 | 0.00 | 94 | 1011.8 | |
| 20260509112339 | 71 | 0.0 | 0.0 | 0.00 | 0.00 | 0.00 | 94 | 1011.8 | |
| 20260509111836 | 71 | 0.0 | 0.0 | 0.00 | 0.00 | 0.00 | 94 | 1011.9 | |
| 20260509111334 | 71 | 0.0 | 0.0 | 0.00 | 0.00 | 0.00 | 94 | 1011.9 | |
| 20260509110830 | 71 | 0.0 | 0.0 | 0.00 | 0.00 | 0.00 | 94 | 1012.1 | |
| 20260509110329 | 71 | 0.0 | 0.0 | 0.00 | 0.00 | 0.00 | 94 | 1012.1 | |
| 20260509105826 | 71 | 0.0 | 0.0 | 0.00 | 0.00 | 0.00 | 94 | 1012.1 | |
| 20260509105323 | 71 | 0.0 | 1.0 | 0.00 | 0.00 | 0.00 | 94 | 1012.3 | |
| 20260509104820 | 71 | 0.0 | 1.0 | 0.00 | 0.00 | 0.00 | 94 | 1012.5 | |
| 20260509104318 | 71 | 0.0 | 0.0 | 0.00 | 0.00 | 0.00 | 94 | 1012.4 | |
| 20260509103816 | 71 | 0.0 | 0.0 | 0.00 | 0.00 | 0.00 | 94 | 1012.5 | |
| 20260509103313 | 71 | 0.0 | 0.0 | 0.00 | 0.00 | 0.00 | 94 | 1012.6 | |
| 20260509102810 | 71 | 0.0 | 1.0 | 0.00 | 0.00 | 0.00 | 94 | 1012.5 | |
| 20260509102308 | 71 | 0.0 | 1.0 | 0.00 | 0.00 | 0.00 | 94 | 1012.3 | |
| 20260509101804 | 71 | 0.0 | 0.0 | 0.00 | 0.00 | 0.00 | 94 | 1012.0 | |
| 20260509101303 | 71 | 0.0 | 0.0 | 0.00 | 0.00 | 0.00 | 94 | 1012.1 | |
| 20260509100800 | 71 | 0.0 | 0.0 | 0.00 | 0.00 | 0.00 | 94 | 1012.1 | |
| 20260509100258 | 71 | 0.0 | 0.0 | 0.00 | 0.00 | 0.00 | 94 | 1012.0 | |
| 20260509095754 | 71 | 0.0 | 0.0 | 0.00 | 0.00 | 0.00 | 94 | 1011.9 | |
| 20260509095253 | 71 | 0.0 | 0.0 | 0.00 | 0.00 | 0.00 | 94 | 1011.7 | |
| 20260509094750 | 71 | 0.0 | 1.0 | 0.00 | 0.00 | 0.00 | 94 | 1011.5 | |
| 20260509094248 | 71 | 0.0 | 1.0 | 0.00 | 0.00 | 0.00 | 94 | 1011.4 | |
| 20260509093744 | 71 | 0.0 | 0.0 | 0.00 | 0.00 | 0.00 | 94 | 1011.5 | |
| 20260509093243 | 71 | 0.0 | 0.0 | 0.00 | 0.00 | 0.00 | 94 | 1011.4 | |
| 20260509092740 | 71 | 0.0 | 0.0 | 0.00 | 0.00 | 0.00 | 93 | 1011.2 | |
| 20260509092238 | 71 | 0.0 | 0.0 | 0.00 | 0.00 | 0.00 | 93 | 1010.8 | |
| 20260509091734 | 71 | 0.0 | 0.0 | 0.00 | 0.00 | 0.00 | 93 | 1010.7 | |
| 20260509091233 | 71 | 0.0 | 0.0 | 0.00 | 0.00 | 0.00 | 93 | 1010.5 | |
| 20260509090730 | 72 | 0.0 | 0.0 | 0.00 | 0.00 | 0.00 | 93 | 1010.5 | |
| 20260509090228 | 72 | 0.0 | 2.0 | 0.00 | 0.00 | 0.00 | 93 | 1010.5 | |
| 20260509085724 | 72 | 0.0 | 3.0 | 0.00 | 0.00 | 0.00 | 93 | 1010.7 | |
| 20260509085223 | 72 | 0.0 | 3.0 | 0.00 | 0.00 | 0.00 | 93 | 1010.6 | |
| 20260509084720 | 72 | 0.0 | 1.0 | 0.00 | 0.00 | 0.00 | 93 | 1010.7 | |
| 20260509084217 | 72 | 0.0 | 0.0 | 0.00 | 0.00 | 0.00 | 92 | 1010.8 | |
| 20260509083714 | 72 | 0.0 | 0.0 | 0.00 | 0.00 | 0.00 | 92 | 1011.0 | |
| 20260509083213 | 72 | 0.0 | 0.0 | 0.00 | 0.00 | 0.00 | 92 | 1011.2 | |
| 20260509082710 | 72 | 0.0 | 0.0 | 0.00 | 0.00 | 0.00 | 92 | 1011.1 | |
| 20260509082207 | 72 | 0.0 | 0.0 | 0.00 | 0.00 | 0.00 | 92 | 1011.2 | |
| 20260509081704 | 72 | 0.0 | 0.0 | 0.00 | 0.00 | 0.00 | 92 | 1011.0 | |
| 20260509081202 | 72 | 0.0 | 0.0 | 0.00 | 0.00 | 0.00 | 92 | 1011.2 | |
| 20260509080700 | 72 | 0.0 | 0.0 | 0.00 | 0.00 | 0.00 | 91 | 1011.0 | |
| 20260509080157 | 72 | 0.0 | 0.0 | 0.00 | 0.00 | 0.00 | 91 | 1011.0 | |
| 20260509075654 | 72 | 0.0 | 0.0 | 0.00 | 0.00 | 0.00 | 91 | 1011.0 | |
| 20260509075152 | 72 | 0.0 | 0.0 | 0.00 | 0.00 | 0.00 | 91 | 1011.2 | |
| 20260509074648 | 72 | 0.0 | 0.0 | 0.00 | 0.00 | 0.00 | 91 | 1011.3 | |
| 20260509074147 | 73 | 0.0 | 0.0 | 0.00 | 0.00 | 0.00 | 91 | 1011.6 | |
| 20260509073644 | 73 | 0.0 | 0.0 | 0.00 | 0.00 | 0.00 | 91 | 1011.7 | |
| 20260509073142 | 73 | 0.0 | 0.0 | 0.00 | 0.00 | 0.00 | 91 | 1011.5 | |
| 20260509072638 | 73 | 0.0 | 0.0 | 0.00 | 0.00 | 0.00 | 91 | 1011.3 | |
| 20260509072137 | 73 | 0.0 | 0.0 | 0.00 | 0.00 | 0.00 | 91 | 1011.7 | |
| 20260509071634 | 73 | 0.0 | 0.0 | 0.00 | 0.00 | 0.00 | 91 | 1011.8 | |
| 20260509071132 | 73 | 0.0 | 0.0 | 0.00 | 0.00 | 0.00 | 91 | 1011.7 | |
| 20260509070628 | 73 | 0.0 | 0.0 | 0.00 | 0.00 | 0.00 | 91 | 1011.6 | |
| 20260509070127 | 73 | 0.0 | 0.0 | 0.00 | 0.00 | 0.00 | 91 | 1011.5 | |
| 20260509065624 | 73 | 0.0 | 0.0 | 0.00 | 0.00 | 0.00 | 90 | 1011.3 | |
| 20260509065123 | 73 | 0.0 | 0.0 | 0.00 | 0.00 | 0.00 | 90 | 1011.3 | |
| 20260509064618 | 73 | 0.0 | 0.0 | 0.00 | 0.00 | 0.00 | 90 | 1011.5 | |
| 20260509064117 | 73 | 0.0 | 0.0 | 0.00 | 0.00 | 0.00 | 90 | 1011.4 | |
| 20260509063614 | 73 | 0.0 | 0.0 | 0.00 | 0.00 | 0.00 | 90 | 1011.4 | |
| 20260509063112 | 73 | 0.0 | 0.0 | 0.00 | 0.00 | 0.00 | 90 | 1011.5 | |
| 20260509062608 | 73 | 0.0 | 0.0 | 0.00 | 0.00 | 0.00 | 90 | 1011.5 | |
| 20260509062107 | 73 | 0.0 | 0.0 | 0.00 | 0.00 | 0.00 | 90 | 1011.6 | |
| 20260509061604 | 73 | 0.0 | 0.0 | 0.00 | 0.00 | 0.00 | 90 | 1011.5 | |
| 20260509061101 | 73 | 0.0 | 0.0 | 0.00 | 0.00 | 0.00 | 90 | 1011.4 | |
| 20260509060558 | 73 | 0.0 | 2.0 | 0.00 | 0.00 | 0.00 | 90 | 1011.4 | |
| 20260509060056 | 73 | 0.0 | 2.0 | 0.00 | 0.00 | 0.00 | 90 | 1011.4 | |
| 20260509055554 | 73 | 0.0 | 0.0 | 0.00 | 0.00 | 0.00 | 90 | 1011.6 | |
| 20260509055051 | 73 | 0.0 | 0.0 | 0.00 | 0.00 | 0.00 | 90 | 1011.5 | |
| 20260509054548 | 73 | 0.0 | 3.0 | 0.00 | 0.00 | 0.00 | 90 | 1011.1 | |
| 20260509054046 | 73 | 0.0 | 3.0 | 0.00 | 0.00 | 0.00 | 90 | 1010.7 | |
| 20260509053544 | 73 | 0.0 | 0.0 | 0.00 | 0.00 | 0.00 | 90 | 1010.6 | |
| 20260509053041 | 73 | 0.0 | 2.0 | 0.00 | 0.00 | 0.00 | 90 | 1010.3 | |
| 20260509052538 | 72 | 0.0 | 2.0 | 0.00 | 0.00 | 0.00 | 90 | 1010.2 | |
| 20260509052036 | 72 | 0.0 | 0.0 | 0.00 | 0.00 | 0.00 | 90 | 1010.2 | |
| 20260509051534 | 72 | 0.0 | 0.0 | 0.00 | 0.00 | 0.00 | 89 | 1010.2 | |
| 20260509051031 | 72 | 0.0 | 0.0 | 0.00 | 0.00 | 0.00 | 89 | 1010.1 | |
| 20260509050528 | 72 | 0.0 | 0.0 | 0.00 | 0.00 | 0.00 | 89 | 1010.0 | |
| 20260509050026 | 72 | 0.0 | 0.0 | 0.00 | 0.00 | 0.00 | 89 | 1009.9 | |
| 20260509045518 | 72 | 0.0 | 0.0 | 0.00 | 0.00 | 0.00 | 89 | 1009.9 | |
| 20260509045014 | 72 | 0.0 | 0.0 | 0.00 | 0.00 | 0.00 | 89 | 1010.0 | |
| 20260509044512 | 73 | 0.0 | 0.0 | 0.00 | 0.00 | 0.00 | 89 | 1009.9 | |
| 20260509044010 | 73 | 0.0 | 0.0 | 0.00 | 0.00 | 0.00 | 89 | 1010.2 | |
| 20260509043508 | 73 | 0.0 | 2.0 | 0.00 | 0.00 | 0.00 | 88 | 1010.3 | |
| 20260509043004 | 73 | 0.0 | 2.0 | 0.00 | 0.00 | 0.00 | 88 | 1010.5 | |
| 20260509042501 | 73 | 0.0 | 0.0 | 0.00 | 0.00 | 0.00 | 88 | 1010.5 | |
| 20260509041957 | 73 | 0.0 | 0.0 | 0.00 | 0.00 | 0.00 | 88 | 1010.5 | |
| 20260509041455 | 73 | 0.0 | 1.0 | 0.00 | 0.00 | 0.00 | 88 | 1010.6 | |
| 20260509040953 | 73 | 0.0 | 1.0 | 0.00 | 0.00 | 0.00 | 88 | 1010.5 | |
| 20260509040451 | 73 | 0.0 | 0.0 | 0.00 | 0.00 | 0.00 | 88 | 1010.5 | |
| 20260509035947 | 73 | 0.0 | 3.0 | 0.00 | 0.00 | 0.00 | 88 | 1010.5 | |
| 20260509035445 | 73 | 0.0 | 3.0 | 0.00 | 0.00 | 0.00 | 88 | 1010.5 | |
| 20260509034943 | 73 | 0.0 | 0.0 | 0.00 | 0.00 | 0.00 | 88 | 1010.5 | |
| 20260509034441 | 73 | 0.0 | 0.0 | 0.00 | 0.00 | 0.00 | 88 | 1010.6 | |
| 20260509033937 | 72 | 0.0 | 0.0 | 0.00 | 0.00 | 0.00 | 88 | 1010.5 | |
| 20260509033435 | 72 | 0.0 | 0.0 | 0.00 | 0.00 | 0.00 | 89 | 1010.4 | |
| 20260509032935 | 72 | 0.0 | 0.0 | 0.00 | 0.00 | 0.00 | 89 | 1010.3 | |
| 20260509032431 | 72 | 0.0 | 0.0 | 0.00 | 0.00 | 0.00 | 89 | 1010.3 | |
| 20260509031927 | 72 | 0.0 | 0.0 | 0.00 | 0.00 | 0.00 | 89 | 1010.3 | |
| 20260509031425 | 72 | 0.0 | 0.0 | 0.00 | 0.00 | 0.00 | 89 | 1010.3 | |
| 20260509030923 | 72 | 0.0 | 0.0 | 0.00 | 0.00 | 0.00 | 89 | 1010.1 | |
| 20260509030421 | 72 | 0.0 | 0.0 | 0.00 | 0.00 | 0.00 | 89 | 1010.0 | |
| 20260509025917 | 72 | 0.0 | 0.0 | 0.00 | 0.00 | 0.00 | 89 | 1010.0 | |
| 20260509025415 | 72 | 0.0 | 0.0 | 0.00 | 0.00 | 0.00 | 89 | 1010.0 | |
| 20260509024913 | 72 | 0.0 | 0.0 | 0.00 | 0.00 | 0.00 | 89 | 1009.9 | |
| 20260509024411 | 72 | 0.0 | 0.0 | 0.00 | 0.00 | 0.00 | 88 | 1009.7 | |
| 20260509023907 | 72 | 0.0 | 0.0 | 0.00 | 0.00 | 0.00 | 88 | 1009.7 | |
| 20260509023405 | 72 | 0.0 | 0.0 | 0.00 | 0.00 | 0.00 | 88 | 1009.8 | |
| 20260509022903 | 72 | 0.0 | 0.0 | 0.00 | 0.00 | 0.00 | 88 | 1009.8 | |
| 20260509022401 | 72 | 0.0 | 0.0 | 0.00 | 0.00 | 0.00 | 88 | 1009.9 | |
| 20260509021857 | 72 | 0.0 | 0.0 | 0.00 | 0.00 | 0.00 | 88 | 1009.7 | |
| 20260509021355 | 73 | 0.0 | 0.0 | 0.00 | 0.00 | 0.00 | 87 | 1009.7 | |
| 20260509020853 | 73 | 0.0 | 0.0 | 0.00 | 0.00 | 0.00 | 87 | 1009.6 | |
| 20260509020351 | 73 | 0.0 | 0.0 | 0.00 | 0.00 | 0.00 | 87 | 1009.5 | |
| 20260509015847 | 73 | 0.0 | 0.0 | 0.00 | 0.00 | 0.00 | 86 | 1009.4 | |
| 20260509015345 | 73 | 0.0 | 0.0 | 0.00 | 0.00 | 0.00 | 86 | 1009.4 | |
| 20260509014841 | 73 | 0.0 | 0.0 | 0.00 | 0.00 | 0.00 | 86 | 1009.3 | |
| 20260509014339 | 73 | 0.0 | 0.0 | 0.00 | 0.00 | 0.00 | 86 | 1009.3 | |
| 20260509013837 | 73 | 0.0 | 0.0 | 0.00 | 0.00 | 0.00 | 85 | 1009.2 | |
| 20260509013335 | 74 | 0.0 | 0.0 | 0.00 | 0.00 | 0.00 | 84 | 1009.2 | |
| 20260509012831 | 74 | 0.0 | 1.0 | 0.00 | 0.00 | 0.00 | 84 | 1009.2 | |
| 20260509012329 | 74 | 0.0 | 1.0 | 0.00 | 0.00 | 0.00 | 84 | 1009.2 | |
| 20260509011827 | 74 | 0.0 | 0.0 | 0.00 | 0.00 | 0.00 | 83 | 1009.2 | |
| 20260509011325 | 74 | 0.0 | 0.0 | 0.00 | 0.00 | 0.00 | 83 | 1009.1 | |
| 20260509010821 | 75 | 0.0 | 0.0 | 0.00 | 0.00 | 0.00 | 83 | 1008.9 | |
| 20260509010319 | 75 | 0.0 | 0.0 | 0.00 | 0.00 | 0.00 | 83 | 1009.0 | |
| 20260509005817 | 75 | 0.0 | 1.0 | 0.00 | 0.00 | 0.00 | 83 | 1009.2 | |
| 20260509005315 | 75 | 0.0 | 1.0 | 0.00 | 0.00 | 0.00 | 83 | 1009.2 | |
| 20260509004811 | 75 | 0.0 | 0.0 | 0.00 | 0.00 | 0.00 | 83 | 1009.2 | |
| 20260509004309 | 75 | 0.0 | 0.0 | 0.00 | 0.00 | 0.00 | 82 | 1009.2 | |
| 20260509003807 | 75 | 0.0 | 0.0 | 0.00 | 0.00 | 0.00 | 83 | 1009.2 | |
| 20260509003305 | 75 | 0.0 | 0.0 | 0.00 | 0.00 | 0.00 | 82 | 1009.2 | |
| 20260509002801 | 75 | 0.0 | 0.0 | 0.00 | 0.00 | 0.00 | 82 | 1009.1 | |
| 20260509002259 | 75 | 0.0 | 0.0 | 0.00 | 0.00 | 0.00 | 82 | 1009.1 | |
| 20260509001757 | 75 | 0.0 | 0.0 | 0.00 | 0.00 | 0.00 | 82 | 1009.2 | |
| 20260509001255 | 75 | 0.0 | 0.0 | 0.00 | 0.00 | 0.00 | 82 | 1009.2 | |
| 20260509000751 | 75 | 0.0 | 0.0 | 0.00 | 0.00 | 0.00 | 82 | 1009.2 | |
| 20260509000249 | 75 | 0.0 | 0.0 | 0.00 | 0.00 | 0.00 | 82 | 1009.3 | |
| 20260508235747 | 75 | 0.0 | 0.0 | 0.00 | 0.00 | 0.00 | 82 | 1009.3 | |
| 20260508235245 | 76 | 0.0 | 0.0 | 0.00 | 0.00 | 0.00 | 82 | 1009.3 | |
| 20260508234741 | 76 | 0.0 | 0.0 | 0.00 | 0.00 | 0.00 | 81 | 1009.4 | |
| 20260508234239 | 76 | 0.0 | 2.0 | 0.00 | 0.00 | 0.00 | 81 | 1009.4 | |
| 20260508233737 | 76 | 0.0 | 2.0 | 0.00 | 0.00 | 0.00 | 81 | 1009.3 | |
| 20260508233235 | 76 | 0.0 | 0.0 | 0.00 | 0.00 | 0.00 | 81 | 1009.4 | |
| 20260508232731 | 76 | 0.0 | 3.0 | 0.00 | 0.00 | 0.00 | 81 | 1009.3 | |
| 20260508232229 | 76 | 0.0 | 3.0 | 0.00 | 0.00 | 0.00 | 80 | 1009.3 | |
| 20260508231727 | 76 | 0.0 | 4.0 | 0.00 | 0.00 | 0.00 | 81 | 1009.2 | |
| 20260508231225 | 76 | 170 | 1.0 | 4.0 | 0.00 | 0.00 | 0.00 | 80 | 1009.2 |
| 20260508230721 | 76 | 0.0 | 4.0 | 0.00 | 0.00 | 0.00 | 80 | 1009.3 | |
| 20260508230219 | 76 | 0.0 | 3.0 | 0.00 | 0.00 | 0.00 | 79 | 1009.2 | |
| 20260508225715 | 76 | 0.0 | 1.0 | 0.00 | 0.00 | 0.00 | 79 | 1009.2 | |
| 20260508225213 | 76 | 0.0 | 1.0 | 0.00 | 0.00 | 0.00 | 79 | 1009.2 | |
| 20260508224711 | 76 | 0.0 | 1.0 | 0.00 | 0.00 | 0.00 | 79 | 1009.2 | |
| 20260508224209 | 77 | 0.0 | 1.0 | 0.00 | 0.00 | 0.00 | 78 | 1009.3 | |
| 20260508223705 | 77 | 0.0 | 8.0 | 0.00 | 0.00 | 0.00 | 78 | 1009.3 | |
| 20260508223203 | 77 | 167 | 1.0 | 8.0 | 0.00 | 0.00 | 0.00 | 79 | 1009.3 |
| 20260508222701 | 77 | 0.0 | 2.0 | 0.00 | 0.00 | 0.00 | 78 | 1009.3 | |
| 20260508222159 | 77 | 0.0 | 2.0 | 0.00 | 0.00 | 0.00 | 78 | 1009.3 | |
| 20260508221655 | 77 | 0.0 | 2.0 | 0.00 | 0.00 | 0.00 | 78 | 1009.4 | |
| 20260508221153 | 77 | 0.0 | 1.0 | 0.00 | 0.00 | 0.00 | 77 | 1009.4 | |
| 20260508220651 | 77 | 0.0 | 1.0 | 0.00 | 0.00 | 0.00 | 78 | 1009.4 | |
| 20260508220149 | 77 | 0.0 | 0.0 | 0.00 | 0.00 | 0.00 | 77 | 1009.5 | |
| 20260508215645 | 77 | 0.0 | 2.0 | 0.00 | 0.00 | 0.00 | 76 | 1009.6 | |
| 20260508215143 | 77 | 0.0 | 3.0 | 0.00 | 0.00 | 0.00 | 76 | 1009.6 | |
| 20260508214641 | 77 | 0.0 | 3.0 | 0.00 | 0.00 | 0.00 | 75 | 1009.6 | |
| 20260508214139 | 78 | 165 | 1.0 | 3.0 | 0.00 | 0.00 | 0.00 | 75 | 1009.5 |
| 20260508213635 | 78 | 0.0 | 3.0 | 0.00 | 0.00 | 0.00 | 74 | 1009.5 | |
| 20260508213133 | 79 | 0.0 | 3.0 | 0.00 | 0.00 | 0.00 | 73 | 1009.7 | |
| 20260508212631 | 79 | 0.0 | 1.0 | 0.00 | 0.00 | 0.00 | 73 | 1009.7 | |
| 20260508212129 | 80 | 0.0 | 3.0 | 0.00 | 0.00 | 0.00 | 72 | 1009.9 | |
| 20260508211625 | 80 | 0.0 | 3.0 | 0.00 | 0.00 | 0.00 | 72 | 1009.9 | |
| 20260508211123 | 80 | 0.0 | 2.0 | 0.00 | 0.00 | 0.00 | 73 | 1010.0 | |
| 20260508210621 | 79 | 0.0 | 4.0 | 0.00 | 0.00 | 0.00 | 73 | 1010.1 | |
| 20260508210119 | 79 | 0.0 | 4.0 | 0.00 | 0.00 | 0.00 | 76 | 1010.1 | |
| 20260508205615 | 78 | 0.0 | 4.0 | 0.00 | 0.00 | 0.00 | 75 | 1010.3 | |
| 20260508205113 | 78 | 0.0 | 4.0 | 0.00 | 0.00 | 0.00 | 74 | 1010.5 | |
| 20260508204611 | 78 | 0.0 | 4.0 | 0.00 | 0.00 | 0.00 | 73 | 1010.6 | |
| 20260508204109 | 78 | 0.0 | 3.0 | 0.00 | 0.00 | 0.00 | 74 | 1010.5 | |
| 20260508203605 | 78 | 0.0 | 3.0 | 0.00 | 0.00 | 0.00 | 73 | 1010.6 | |
| 20260508203103 | 78 | 0.0 | 6.0 | 0.00 | 0.00 | 0.00 | 75 | 1010.6 | |
| 20260508202559 | 78 | 107 | 1.0 | 6.0 | 0.00 | 0.00 | 0.00 | 75 | 1010.8 |
| 20260508202057 | 77 | 0.0 | 2.0 | 0.00 | 0.00 | 0.00 | 74 | 1010.7 | |
| 20260508201555 | 78 | 0.0 | 3.0 | 0.00 | 0.00 | 0.00 | 73 | 1010.8 |